Regional Weather Roundup
Issued by NWS

Home | Current Version | Previous Version | Text Only | Print | Product List | Glossary Off
Versions: 1 2 3 4 5 6 7 8 9 10 11 12 13 14 15 16 17 18 19 20 21 22 23 24 25 26 27 28 29 30 31 32 33 34 35 36 37 38 39 40 41 42 43 44 45 46 47 48 49 50

000
ASUS43 KFSD 232210
RWRSD

WEATHER ROUNDUP FOR SOUTH DAKOTA
NATIONAL WEATHER SERVICE SIOUX FALLS SD
400 PM CST SUN NOV 23 2014

NOTE: "FAIR" INDICATES FEW OR NO CLOUDS BELOW 12,000 FEET WITH NO
SIGNIFICANT WEATHER AND/OR OBSTRUCTIONS TO VISIBILITY.


SDZ001>005-009-010-012>017-232300-
NORTHWEST AND NORTH CENTRAL SOUTH DAKOTA

CITY           SKY/WX    TMP DP  RH WIND       PRES   REMARKS
BUFFALO          N/A     31  19  61 NW31G40   29.63R WCI  16
FAITH            N/A     31  18  58 NW31G44   29.66R WCI  16
MOBRIDGE       CLOUDY    29  19  66 NW25G36   29.60R WCI  14
$$

SDZ012>016-024>037-041>051-057-063-072>074-232300-
SOUTHWEST AND SOUTH CENTRAL SOUTH DAKOTA

CITY           SKY/WX    TMP DP  RH WIND       PRES   REMARKS
RAPID CTY ARPT PTSUNNY   38  21  50 NW31G49   29.70R
PIERRE         CLOUDY    33  24  69 NW26G41   29.64R WCI  20
CUSTER         CLOUDY    28  15  58 W16G35    29.67S WCI  16
ELLSWORTH AFB  MIX PCPN  37  19  48 NW38G51   29.68  SQUALL
PHILIP         CLOUDY   N/A N/A N/A N29G38    29.68R
PINE RIDGE     FLURRIES  38  24  57 NW10G22   29.73R
SPEARFISH      PTSUNNY   34  21  60 NW21G36   29.75R WCI  22
WINNER         FAIR      43  26  51 NW29G39   29.62R
$$

SDZ004>011-016>023-039-040-232300-
NORTHEAST SOUTH DAKOTA

CITY           SKY/WX    TMP DP  RH WIND       PRES   REMARKS
ABERDEEN       CLOUDY    31  21  66 NW24G33   29.56R WCI  17
WATERTOWN      CLOUDY    34  26  72 NW18G25   29.49R WCI  23
SISSETON         N/A     33  25  72 NW21G29   29.49R WCI  21
$$

SDZ017-020-022-023-036>040-048>070-232300-
SOUTHEAST SOUTH DAKOTA

CITY           SKY/WX    TMP DP  RH WIND       PRES   REMARKS
SIOUX FALLS    CLOUDY    40  31  70 NW17G26   29.51R
HURON          PTCLDY    37  26  64 NW24G30   29.55R
CHAMBERLAIN    CLOUDY    39  27  61 NW22G30   29.61R
YANKTON        CLOUDY   N/A N/A N/A NW26G36   29.55R
$$

ABBREVIATIONS USED IN REMARKS
   TC - TEMPERATURE IN CELSIUS
  WCI - WIND CHILL INDEX
   HX - HEAT INDEX
  VSB - VISIBILITY




USA.gov is the U.S. government's official web portal to all federal, state and local government web resources and services.